Location: Demre
(36.2444°N, 29.9850°E)
Time: 05:04:31
(UTC+00:00)

Cosmos 1417 Rocket - Pass Details

Date: 11 March 2026
Orbit: 950 x 999 km, 83.0° (Epoch: 21 April)

Event Time Altitude Azimuth Distance (km) Brightness Sun altitude
Rises 17:59:51 0° 354° (N) 3,677 7.8 -24.0°
Reaches altitude 10° 18:02:23 10° 355° (N) 2,719 7.0 -24.5°
Maximum altitude 18:08:37 84° 83° (E) 971 4.3 -25.7°
Enters shadow 18:10:54 42° 169° (SSE) 1,342 5.0 -26.2°
